Location: Eboldshausen
(51.7766°N, 10.0050°E)
Time: 17:53:04
(UTC+00:00)

Cosmos 1269 Rocket - Pass Details

Date: 15 November 2025
Orbit: 768 x 775 km, 74.1° (Epoch: 09 December)

Event Time Altitude Azimuth Distance (km) Brightness Sun altitude
Rises 17:18:11 0° 212° (SSW) 3,230 7.9 -16.6°
Reaches altitude 10° 17:20:34 10° 215° (SW) 2,308 7.1 -17.0°
Maximum altitude 17:25:47 66° 298° (WNW) 842 4.3 -17.8°
Drops below altitude 10° 17:31:03 10° 21° (NNE) 2,328 6.2 -18.6°
Enters shadow 17:31:15 - 21° (NNE) 2,404 6.3 -18.6°
